Time,TemperatureF,DewpointF,PressureIn,WindDirection,WindDirectionDegrees,WindSpeedMPH,WindSpeedGustMPH,Humidity,HourlyPrecipIn,Conditions,Clouds,dailyrainin,SoftwareType,DateUTC
2013-06-22 13:26:00,82.0,65.3,29.26,SSE,158,1.3,1.3,57,0.00,,---,0.00,VWS V14.01,2013-06-22 17:26:00,
2013-06-22 13:27:00,82.2,66.0,29.26,South,180,1.6,1.6,58,0.00,,---,0.00,VWS V14.01,2013-06-22 17:27:00,
2013-06-22 13:32:00,82.6,66.3,29.26,South,180,0.0,0.0,58,0.00,,---,0.00,VWS V14.01,2013-06-22 17:32:00,
2013-06-22 13:37:00,82.9,65.1,29.26,South,180,1.3,2.5,55,0.00,,---,0.00,VWS V14.01,2013-06-22 17:37:00,
2013-06-22 13:42:00,83.1,64.8,29.26,South,180,1.3,1.3,54,0.00,,---,0.00,VWS V14.01,2013-06-22 17:42:00,
2013-06-22 13:47:00,83.1,64.8,29.26,SE,135,0.9,0.9,54,0.00,,---,0.00,VWS V14.01,2013-06-22 17:47:00,
2013-06-22 13:52:00,83.5,64.6,29.26,South,180,3.4,3.8,53,0.00,,---,0.00,VWS V14.01,2013-06-22 17:52:00,
2013-06-22 13:57:00,82.9,65.1,29.26,SW,225,0.9,1.1,55,0.00,,---,0.00,VWS V14.01,2013-06-22 17:57:00,
2013-06-22 14:02:00,82.6,62.6,29.26,SW,225,1.3,1.3,51,0.00,,---,0.00,VWS V14.01,2013-06-22 18:02:00,
2013-06-22 14:07:00,82.4,64.6,29.23,South,180,2.7,2.9,55,0.00,,---,0.00,VWS V14.01,2013-06-22 18:07:00,
2013-06-22 14:12:00,82.4,63.6,29.23,SSE,158,1.6,1.6,53,0.00,,---,0.00,VWS V14.01,2013-06-22 18:12:00,
2013-06-22 14:17:00,82.6,64.8,29.23,NW,315,1.3,1.3,55,0.00,,---,0.00,VWS V14.01,2013-06-22 18:17:00,
2013-06-22 14:22:00,83.3,62.7,29.23,SW,225,3.1,4.3,50,0.00,,---,0.00,VWS V14.01,2013-06-22 18:22:00,
2013-06-22 14:27:00,82.9,64.1,29.23,SW,225,3.1,3.1,53,0.00,,---,0.00,VWS V14.01,2013-06-22 18:27:00,
2013-06-22 14:32:00,83.5,64.0,29.23,SSE,158,1.6,2.7,52,0.00,,---,0.00,VWS V14.01,2013-06-22 18:32:00,
2013-06-22 14:37:00,83.8,65.4,29.23,SSW,202,1.1,2.7,54,0.00,,---,0.00,VWS V14.01,2013-06-22 18:37:00,
2013-06-22 14:42:00,83.8,64.9,29.23,SSW,202,1.6,1.6,53,0.00,,---,0.00,VWS V14.01,2013-06-22 18:42:00,
2013-06-22 14:47:00,84.2,64.7,29.23,SSW,202,2.7,3.4,52,0.00,,---,0.00,VWS V14.01,2013-06-22 18:47:00,
2013-06-22 14:52:00,83.8,64.9,29.20,SE,135,1.3,1.6,53,0.00,,---,0.00,VWS V14.01,2013-06-22 18:52:00,
2013-06-22 14:57:00,84.0,65.6,29.20,South,180,1.6,3.1,54,0.00,,---,0.00,VWS V14.01,2013-06-22 18:57:00,
2013-06-22 15:02:00,84.0,65.1,29.20,South,180,1.6,2.2,53,0.00,,---,0.00,VWS V14.01,2013-06-22 19:02:00,
2013-06-22 15:07:00,84.4,62.6,29.20,SSW,202,1.1,1.6,48,0.00,,---,0.00,VWS V14.01,2013-06-22 19:07:00,
2013-06-22 15:12:00,84.4,64.3,29.20,South,180,2.9,2.9,51,0.00,,---,0.00,VWS V14.01,2013-06-22 19:12:00,
2013-06-22 15:17:00,84.6,65.0,29.20,SE,135,0.0,0.0,52,0.00,,---,0.00,VWS V14.01,2013-06-22 19:17:00,
2013-06-22 15:22:00,84.6,64.5,29.20,South,180,1.1,2.2,51,0.00,,---,0.00,VWS V14.01,2013-06-22 19:22:00,
2013-06-22 15:27:00,84.2,65.2,29.20,SSE,158,0.0,0.0,53,0.00,,---,0.00,VWS V14.01,2013-06-22 19:27:00,
2013-06-22 15:32:00,84.0,65.6,29.20,NNE,22,0.0,1.1,54,0.00,,---,0.00,VWS V14.01,2013-06-22 19:32:00,
2013-06-22 15:37:00,84.0,65.6,29.23,South,180,1.1,2.7,54,0.00,,---,0.00,VWS V14.01,2013-06-22 19:37:00,
2013-06-22 15:42:00,84.2,65.2,29.23,NE,45,0.0,0.0,53,0.00,,---,0.00,VWS V14.01,2013-06-22 19:42:00,
2013-06-22 15:47:00,84.0,66.1,29.23,North,0,0.0,0.0,55,0.00,,---,0.00,VWS V14.01,2013-06-22 19:47:00,
2013-06-22 15:51:00,84.0,66.7,29.20,South,180,1.1,1.1,56,0.00,,---,0.00,VWS V14.01,2013-06-22 19:51:00,
2013-06-22 15:57:00,84.2,65.8,29.20,SSE,158,1.3,1.3,54,0.00,,---,0.00,VWS V14.01,2013-06-22 19:57:00,
2013-06-22 16:01:00,84.0,65.6,29.20,South,180,2.0,2.0,54,0.00,,---,0.00,VWS V14.01,2013-06-22 20:01:00,
2013-06-22 16:06:00,84.0,65.6,29.20,East,90,0.0,0.0,54,0.00,,---,0.00,VWS V14.01,2013-06-22 20:06:00,
2013-06-22 16:11:00,84.0,65.6,29.20,South,180,1.6,1.6,54,0.00,,---,0.00,VWS V14.01,2013-06-22 20:11:00,
2013-06-22 16:16:00,84.0,65.6,29.20,SE,135,1.6,1.6,54,0.00,,---,0.00,VWS V14.01,2013-06-22 20:16:00,
2013-06-22 16:21:00,84.0,65.6,29.20,South,180,2.2,2.5,54,0.00,,---,0.00,VWS V14.01,2013-06-22 20:21:00,
2013-06-22 16:26:00,84.4,64.3,29.20,South,180,1.1,2.7,51,0.00,,---,0.00,VWS V14.01,2013-06-22 20:26:00,
2013-06-22 16:31:00,84.6,62.7,29.20,South,180,2.2,2.9,48,0.00,,---,0.00,VWS V14.01,2013-06-22 20:31:00,
2013-06-22 16:36:00,84.6,62.7,29.17,South,180,2.7,2.7,48,0.00,,---,0.00,VWS V14.01,2013-06-22 20:36:00,
2013-06-22 16:41:00,84.6,62.7,29.17,SSE,158,1.1,2.5,48,0.00,,---,0.00,VWS V14.01,2013-06-22 20:41:00,
2013-06-22 16:46:00,84.6,62.7,29.17,SSE,158,2.7,2.7,48,0.00,,---,0.00,VWS V14.01,2013-06-22 20:46:00,
2013-06-22 16:51:00,84.6,62.7,29.17,South,180,2.0,2.7,48,0.00,,---,0.00,VWS V14.01,2013-06-22 20:51:00,
2013-06-22 16:56:00,84.6,62.7,29.17,East,90,1.3,1.6,48,0.00,,---,0.00,VWS V14.01,2013-06-22 20:56:00,
2013-06-22 17:01:00,84.6,62.7,29.17,South,180,0.9,1.1,48,0.00,,---,0.00,VWS V14.01,2013-06-22 21:01:00,
2013-06-22 17:06:00,84.6,62.7,29.14,SSE,158,1.3,2.5,48,0.00,,---,0.00,VWS V14.01,2013-06-22 21:06:00,
2013-06-22 17:11:00,84.6,62.7,29.14,East,90,0.0,0.0,48,0.00,,---,0.00,VWS V14.01,2013-06-22 21:11:00,
2013-06-22 17:16:00,85.5,64.1,29.14,SE,135,0.0,0.0,49,0.00,,---,0.00,VWS V14.01,2013-06-22 21:16:00,
2013-06-22 17:21:00,85.5,64.1,29.14,South,180,1.3,1.3,49,0.00,,---,0.00,VWS V14.01,2013-06-22 21:21:00,
2013-06-22 17:26:00,85.5,64.1,29.14,South,180,2.0,2.2,49,0.00,,---,0.00,VWS V14.01,2013-06-22 21:26:00,
2013-06-22 17:31:00,85.5,64.1,29.14,SE,135,0.9,2.2,49,0.00,,---,0.00,VWS V14.01,2013-06-22 21:31:00,
2013-06-22 17:36:00,85.1,60.8,29.14,South,180,2.7,2.7,44,0.00,,---,0.00,VWS V14.01,2013-06-22 21:36:00,
2013-06-22 17:41:00,84.7,62.3,29.14,North,0,1.6,2.2,47,0.00,,---,0.00,VWS V14.01,2013-06-22 21:41:00,
2013-06-22 17:46:00,84.4,62.6,29.14,South,180,0.0,0.9,48,0.00,,---,0.00,VWS V14.01,2013-06-22 21:46:00,
2013-06-22 17:51:00,84.2,63.0,29.14,NNE,22,0.9,0.9,49,0.00,,---,0.00,VWS V14.01,2013-06-22 21:51:00,
2013-06-22 17:56:00,84.2,62.4,29.14,South,180,2.5,2.5,48,0.00,,---,0.00,VWS V14.01,2013-06-22 21:56:00,
2013-06-22 18:01:00,84.4,61.4,29.14,SW,225,2.7,2.7,46,0.00,,---,0.00,VWS V14.01,2013-06-22 22:01:00,
2013-06-22 18:06:00,85.1,58.8,29.14,South,180,0.9,1.3,41,0.00,,---,0.00,VWS V14.01,2013-06-22 22:06:00,
2013-06-22 18:11:00,85.1,60.1,29.14,SSE,158,0.0,2.5,43,0.00,,---,0.00,VWS V14.01,2013-06-22 22:11:00,
2013-06-22 18:16:00,84.9,60.0,29.14,South,180,0.0,0.9,43,0.00,,---,0.00,VWS V14.01,2013-06-22 22:16:00,
2013-06-22 18:21:00,84.7,60.4,29.14,South,180,0.9,2.0,44,0.00,,---,0.00,VWS V14.01,2013-06-22 22:21:00,
2013-06-22 18:26:00,84.7,61.1,29.14,South,180,1.1,1.1,45,0.00,,---,0.00,VWS V14.01,2013-06-22 22:26:00,
2013-06-22 18:31:00,84.7,61.1,29.14,ESE,112,2.5,2.5,45,0.00,,---,0.00,VWS V14.01,2013-06-22 22:31:00,
2013-06-22 18:36:00,84.7,60.4,29.14,South,180,2.9,2.9,44,0.00,,---,0.00,VWS V14.01,2013-06-22 22:36:00,
2013-06-22 18:41:00,84.7,60.4,29.14,SW,225,0.9,2.5,44,0.00,,---,0.00,VWS V14.01,2013-06-22 22:41:00,
2013-06-22 18:46:00,84.7,59.8,29.14,South,180,1.1,2.9,43,0.00,,---,0.00,VWS V14.01,2013-06-22 22:46:00,
2013-06-22 18:51:00,84.7,59.8,29.14,South,180,1.3,2.7,43,0.00,,---,0.00,VWS V14.01,2013-06-22 22:51:00,
2013-06-22 18:56:00,84.6,59.0,29.14,South,180,1.6,2.7,42,0.00,,---,0.00,VWS V14.01,2013-06-22 22:56:00,
2013-06-22 19:01:00,84.6,59.0,29.14,SSW,202,1.3,2.9,42,0.00,,---,0.00,VWS V14.01,2013-06-22 23:01:00,
2013-06-22 19:06:00,84.6,59.0,29.14,South,180,2.0,2.0,42,0.00,,---,0.00,VWS V14.01,2013-06-22 23:06:00,
2013-06-22 19:11:00,84.6,59.0,29.14,SSW,202,1.3,2.5,42,0.00,,---,0.00,VWS V14.01,2013-06-22 23:11:00,
2013-06-22 19:16:00,84.6,59.0,29.14,South,180,1.1,1.6,42,0.00,,---,0.00,VWS V14.01,2013-06-22 23:16:00,
2013-06-22 19:21:00,84.6,59.0,29.14,South,180,1.3,1.6,42,0.00,,---,0.00,VWS V14.01,2013-06-22 23:21:00,
2013-06-22 19:26:00,84.6,59.0,29.14,SSE,158,2.0,2.2,42,0.00,,---,0.00,VWS V14.01,2013-06-22 23:26:00,
2013-06-22 19:31:00,84.4,60.7,29.14,SSW,202,1.6,2.0,45,0.00,,---,0.00,VWS V14.01,2013-06-22 23:31:00,
2013-06-22 19:36:00,84.4,60.7,29.14,SW,225,2.2,2.2,45,0.00,,---,0.00,VWS V14.01,2013-06-22 23:36:00,
2013-06-22 19:41:00,84.4,60.7,29.14,South,180,0.0,0.0,45,0.00,,---,0.00,VWS V14.01,2013-06-22 23:41:00,
2013-06-22 19:46:00,84.4,60.7,29.14,SSW,202,0.0,0.0,45,0.00,,---,0.00,VWS V14.01,2013-06-22 23:46:00,
2013-06-22 19:51:00,82.9,63.0,29.14,West,270,0.0,0.0,51,0.00,,---,0.00,VWS V14.01,2013-06-22 23:51:00,
2013-06-22 19:56:00,82.9,63.0,29.14,North,0,0.0,0.0,51,0.00,,---,0.00,VWS V14.01,2013-06-22 23:56:00,
2013-06-22 20:01:00,82.9,63.0,29.14,NNW,338,2.9,5.6,51,0.00,,---,0.00,VWS V14.01,2013-06-23 00:01:00,
2013-06-22 20:06:00,81.3,62.6,29.14,North,0,3.8,3.8,53,0.00,,---,0.00,VWS V14.01,2013-06-23 00:06:00,
2013-06-22 20:11:00,80.4,62.8,29.14,NW,315,2.2,3.1,55,0.00,,---,0.00,VWS V14.01,2013-06-23 00:11:00,
2013-06-22 20:16:00,80.1,63.0,29.14,North,0,2.9,2.9,56,0.00,,---,0.00,VWS V14.01,2013-06-23 00:16:00,
2013-06-22 20:21:00,79.7,63.1,29.14,NW,315,1.6,2.5,57,0.00,,---,0.00,VWS V14.01,2013-06-23 00:21:00,
2013-06-22 20:26:00,79.2,62.6,29.14,NNW,338,2.0,2.2,57,0.00,,---,0.00,VWS V14.01,2013-06-23 00:26:00,
2013-06-22 20:31:00,78.6,62.6,29.14,North,0,0.0,0.0,58,0.00,,---,0.00,VWS V14.01,2013-06-23 00:31:00,
2013-06-22 20:36:00,78.4,62.5,29.14,NW,315,1.6,2.5,58,0.00,,---,0.00,VWS V14.01,2013-06-23 00:36:00,
2013-06-22 20:41:00,78.1,62.1,29.14,NW,315,0.9,2.7,58,0.00,,---,0.00,VWS V14.01,2013-06-23 00:41:00,
2013-06-22 20:46:00,77.9,62.4,29.14,NNE,22,0.0,0.0,59,0.00,,---,0.00,VWS V14.01,2013-06-23 00:46:00,
2013-06-22 20:51:00,77.5,62.1,29.14,North,0,1.1,1.1,59,0.00,,---,0.00,VWS V14.01,2013-06-23 00:51:00,
2013-06-22 20:56:00,77.2,62.7,29.14,NW,315,0.0,0.9,61,0.00,,---,0.00,VWS V14.01,2013-06-23 00:56:00,
2013-06-22 21:01:00,76.6,62.7,29.14,SW,225,0.0,0.0,62,0.00,,---,0.00,VWS V14.01,2013-06-23 01:01:00,
2013-06-22 21:06:00,76.6,62.7,29.14,NW,315,2.2,2.2,62,0.00,,---,0.00,VWS V14.01,2013-06-23 01:06:00,
2013-06-22 21:11:00,76.6,62.7,29.14,NW,315,0.0,0.0,62,0.00,,---,0.00,VWS V14.01,2013-06-23 01:11:00,
2013-06-22 21:16:00,76.6,62.7,29.14,North,0,0.0,0.0,62,0.00,,---,0.00,VWS V14.01,2013-06-23 01:16:00,
2013-06-22 21:21:00,76.5,62.9,29.14,East,90,0.0,0.0,63,0.00,,---,0.00,VWS V14.01,2013-06-23 01:21:00,
2013-06-22 21:26:00,75.9,62.4,29.14,SE,135,0.0,0.0,63,0.00,,---,0.00,VWS V14.01,2013-06-23 01:26:00,
2013-06-22 21:31:00,75.9,62.4,29.14,NE,45,0.0,0.0,63,0.00,,---,0.00,VWS V14.01,2013-06-23 01:31:00,
2013-06-22 21:36:00,75.9,62.4,29.14,NW,315,0.0,0.0,63,0.00,,---,0.00,VWS V14.01,2013-06-23 01:36:00,
2013-06-22 21:41:00,75.6,62.5,29.14,East,90,0.0,0.0,64,0.00,,---,0.00,VWS V14.01,2013-06-23 01:41:00,
2013-06-22 21:46:00,75.2,62.6,29.14,ENE,68,0.0,0.0,65,0.00,,---,0.00,VWS V14.01,2013-06-23 01:46:00,
2013-06-22 21:51:00,75.4,62.4,29.14,NE,45,0.0,0.0,64,0.00,,---,0.00,VWS V14.01,2013-06-23 01:51:00,
2013-06-22 21:56:00,75.2,62.2,29.14,NE,45,0.0,0.0,64,0.00,,---,0.00,VWS V14.01,2013-06-23 01:56:00,
2013-06-22 22:01:00,74.8,62.3,29.14,North,0,0.0,0.0,65,0.00,,---,0.00,VWS V14.01,2013-06-23 02:01:00,
2013-06-22 22:06:00,74.8,62.3,29.14,NNE,22,0.0,0.0,65,0.00,,---,0.00,VWS V14.01,2013-06-23 02:06:00,
2013-06-22 22:11:00,74.5,62.4,29.14,East,90,0.0,0.0,66,0.00,,---,0.00,VWS V14.01,2013-06-23 02:11:00,
2013-06-22 22:16:00,74.3,62.6,29.14,NE,45,0.0,0.0,67,0.00,,---,0.00,VWS V14.01,2013-06-23 02:16:00,
2013-06-22 22:21:00,74.3,62.6,29.14,ENE,68,0.0,0.0,67,0.00,,---,0.00,VWS V14.01,2013-06-23 02:21:00,
2013-06-22 22:26:00,74.1,62.5,29.14,North,0,0.0,0.0,67,0.00,,---,0.00,VWS V14.01,2013-06-23 02:26:00,
2013-06-22 22:31:00,73.9,62.3,29.14,NE,45,0.0,0.0,67,0.00,,---,0.00,VWS V14.01,2013-06-23 02:31:00,
2013-06-22 22:36:00,73.8,62.1,29.14,NW,315,1.6,1.6,67,0.00,,---,0.00,VWS V14.01,2013-06-23 02:36:00,
2013-06-22 22:41:00,73.4,62.2,29.14,East,90,0.0,0.0,68,0.00,,---,0.00,VWS V14.01,2013-06-23 02:41:00,
2013-06-22 22:46:00,73.4,62.2,29.14,NNW,338,0.0,0.0,68,0.00,,---,0.00,VWS V14.01,2013-06-23 02:46:00,
2013-06-22 22:51:00,73.2,62.5,29.14,North,0,0.0,0.0,69,0.00,,---,0.00,VWS V14.01,2013-06-23 02:51:00,
2013-06-22 22:56:00,73.2,62.5,29.14,East,90,0.0,0.0,69,0.00,,---,0.00,VWS V14.01,2013-06-23 02:56:00,
2013-06-22 23:01:00,73.0,62.3,29.14,NE,45,0.0,0.0,69,0.00,,---,0.00,VWS V14.01,2013-06-23 03:01:00,
2013-06-22 23:06:00,72.9,62.5,29.14,NE,45,0.0,0.0,70,0.00,,---,0.00,VWS V14.01,2013-06-23 03:06:00,
2013-06-22 23:11:00,72.9,62.5,29.14,East,90,0.0,0.0,70,0.00,,---,0.00,VWS V14.01,2013-06-23 03:11:00,
2013-06-22 23:16:00,72.9,62.5,29.14,East,90,0.0,0.0,70,0.00,,---,0.00,VWS V14.01,2013-06-23 03:16:00,
2013-06-22 23:21:00,72.9,62.5,29.14,East,90,0.0,0.0,70,0.00,,---,0.00,VWS V14.01,2013-06-23 03:21:00,
2013-06-22 23:26:00,72.7,62.3,29.14,North,0,0.0,0.0,70,0.00,,---,0.00,VWS V14.01,2013-06-23 03:26:00,
2013-06-22 23:31:00,72.5,62.6,29.14,NW,315,0.0,0.0,71,0.00,,---,0.00,VWS V14.01,2013-06-23 03:31:00,
2013-06-22 23:36:00,72.3,62.4,29.17,NW,315,0.0,0.0,71,0.00,,---,0.00,VWS V14.01,2013-06-23 03:36:00,
2013-06-22 23:41:00,72.3,62.4,29.17,NNE,22,0.0,0.0,71,0.00,,---,0.00,VWS V14.01,2013-06-23 03:41:00,
2013-06-22 23:46:00,72.1,62.2,29.17,North,0,0.0,0.0,71,0.00,,---,0.00,VWS V14.01,2013-06-23 03:46:00,
2013-06-22 23:51:00,72.0,62.0,29.17,WNW,292,0.0,0.0,71,0.00,,---,0.00,VWS V14.01,2013-06-23 03:51:00,
2013-06-22 23:56:00,72.0,62.5,29.17,NNW,338,0.0,0.0,72,0.00,,---,0.00,VWS V14.01,2013-06-23 03:56:00,